Location: Hylvaty SDH
(49.9612°N, 16.4057°E)
Time: 20:19:36
(UTC+01:00)

Vanguard 1 Rocket - Pass Details

Date: 06 October 2020
Orbit: 656 x 4221 km, 34.3° (Epoch: 30 October)

Event Time Altitude Azimuth Distance (km) Brightness Sun altitude
Rises 00:27:40 0° 273° (W) 7,094 12.0 -45.1°
Reaches altitude 10° 00:35:10 10° 256° (WSW) 6,669 11.6 -45.2°
Enters shadow 00:41:41 15° 238° (WSW) 6,597 11.5 -45.2°
Maximum altitude 00:46:19 16° 226° (SW) 6,696 - -45.2°
Drops below altitude 10° 00:58:45 10° 197° (SSW) 7,412 - -45.1°
Sets 01:08:26 0° 179° (S) 8,241 - -44.9°
